Weather History for Big Piney, WY

Change the Weather History Date:

Sunday, April 7, 2013

  Actual Average Record
Temperature  
Mean Temperature 37 °F 35 °F  
Max Temperature 52 °F 50 °F 66 °F (1991)
Min Temperature 21 °F 20 °F 4 °F (1980)
Degree Days  
Heating Degree Days 28 30  
Month to date heating degree days 183 216  
Since 1 July heating degree days 8165 8911  
Cooling Degree Days 0 0  
Month to date cooling degree days 0 0  
Year to date cooling degree days 0 0  
Moisture  
Dew Point 29 °F    
Average Humidity 68    
Maximum Humidity 100    
Minimum Humidity 36    
Precipitation  
Precipitation 0.01 in 0.01 in 0.18 in (2001)
Month to date precipitation 0.03 0.11  
Year to date precipitation 0.22 1.21  
Sea Level Pressure  
Sea Level Pressure 29.75 in    
Wind  
Wind Speed 7 mph (WNW)    
Max Wind Speed 30 mph    
Max Gust Speed 37 mph    
Visibility 6 miles    
Events Snow    
T = Trace of Precipitation, MM = Missing Value Source: NWS Daily Summary

Daily Weather History Graph

Daily Weather History Graph

Search for Another Location

Airport:

Trip Planner

Search our weather history database for the weather conditions in past years. The results will help you decide how hot, cold, wet, or windy it might be!

Date:

Astronomy

Apr. 07, 2013 Rise Set
Actual Time 6:51 AM MDT 7:53 PM MDT
Civil Twilight 6:23 AM MDT 8:22 PM MDT
Nautical Twilight 5:48 AM MDT 8:56 PM MDT
Astronomical Twilight 5:13 AM MDT 9:33 PM MDT
Moon 5:14 AM MDT (4/7) 5:26 PM MDT (4/7)
Length of Visible Light 13h 59m
Length of Day
13h 01m
Waning Crescent, 8% of the Moon is Illuminated
Apr 7
Waning Crescent
Apr 10
New
Apr 18
First Quarter
Apr 25
Full
May 2
Last Quarter

Hourly Weather History & Observations

Time (MDT) Temp. Windchill Dew Point Humidity Pressure Visibility Wind Dir Wind Speed Gust Speed Precip Events Conditions
12:53 AM 26.1 °F 21.9 °F 21.9 °F 84% 29.90 in 10.0 mi NNE 3.5 mph - N/A   Clear
1:53 AM 27.0 °F - 23.0 °F 85% 29.85 in 10.0 mi Calm Calm - N/A   Partly Cloudy
2:53 AM 25.0 °F 18.1 °F 21.9 °F 88% 29.85 in 10.0 mi East 5.8 mph - N/A   Clear
3:53 AM 21.0 °F - 19.0 °F 92% 29.89 in 10.0 mi Calm Calm - N/A   Clear
4:53 AM 21.9 °F 17.2 °F 19.9 °F 92% 29.86 in 10.0 mi ENE 3.5 mph - N/A   Clear
5:53 AM 25.0 °F 19.3 °F 21.9 °F 88% 29.83 in 10.0 mi East 4.6 mph - N/A   Overcast
6:53 AM 25.0 °F - 21.9 °F 88% 29.81 in 10.0 mi Calm Calm - N/A   Mostly Cloudy
7:53 AM 28.0 °F - 25.0 °F 88% 29.82 in 10.0 mi Calm Calm - N/A   Mostly Cloudy
8:53 AM 30.0 °F 26.5 °F 26.1 °F 85% 29.81 in 10.0 mi South 3.5 mph - N/A   Overcast
9:53 AM 37.0 °F 33.3 °F 28.9 °F 73% 29.77 in 10.0 mi SSW 4.6 mph - 0.00 in   Mostly Cloudy
10:53 AM 42.1 °F 37.7 °F 28.9 °F 60% 29.74 in 10.0 mi WSW 6.9 mph 16.1 mph N/A   Overcast
11:53 AM 46.0 °F 39.3 °F 26.1 °F 46% 29.72 in 10.0 mi NW 16.1 mph 21.9 mph 0.00 in   Mostly Cloudy
12:53 PM 46.9 °F - 24.1 °F 41% 29.71 in 10.0 mi NNW 8.1 mph - N/A   Mostly Cloudy
1:53 PM 46.9 °F - 25.0 °F 42% 29.68 in 10.0 mi West 11.5 mph 21.9 mph 0.00 in   Mostly Cloudy
2:53 PM 48.0 °F - 28.9 °F 48% 29.67 in 10.0 mi NW 18.4 mph 27.6 mph N/A   Mostly Cloudy
3:53 PM 48.9 °F - 23.0 °F 36% 29.67 in 10.0 mi NNW 10.4 mph 20.7 mph N/A   Mostly Cloudy
4:14 PM 48.2 °F - 23.0 °F 37% 29.75 in 10.0 mi West 24.2 mph 33.4 mph N/A   Mostly Cloudy
4:53 PM 41.0 °F 33.5 °F 28.9 °F 62% 29.73 in 10.0 mi West 13.8 mph 24.2 mph N/A   Overcast
5:39 PM 35.6 °F 24.8 °F 30.2 °F 81% 29.77 in 2.5 mi West 19.6 mph 34.5 mph 0.00 in Snow Light Snow
5:47 PM 35.6 °F 25.9 °F 32.0 °F 87% 29.77 in 3.0 mi West 16.1 mph - 0.00 in Snow Light Snow
5:50 PM 35.6 °F 25.9 °F 32.0 °F 87% 29.77 in 2.5 mi West 16.1 mph 24.2 mph 0.00 in Snow Light Snow
5:53 PM 35.1 °F 25.9 °F 33.1 °F 92% 29.76 in 3.0 mi West 13.8 mph - 0.00 in Snow Light Snow
6:09 PM 35.6 °F 27.1 °F 33.8 °F 93% 29.76 in 10.0 mi West 12.7 mph - 0.00 in   Overcast
6:20 PM 35.6 °F 28.0 °F 33.8 °F 93% 29.76 in 3.0 mi West 10.4 mph - 0.00 in Snow Light Snow
6:22 PM 33.8 °F 25.3 °F 32.0 °F 93% 29.76 in 1.8 mi West 11.5 mph - 0.00 in Snow Light Snow
6:36 PM 33.8 °F 27.0 °F 32.0 °F 93% 29.76 in 3.0 mi WSW 8.1 mph - 0.01 in Snow Light Snow
6:53 PM 34.0 °F 29.8 °F 33.1 °F 96% 29.75 in 8.0 mi West 4.6 mph - 0.01 in Snow Light Snow
7:12 PM 33.8 °F 28.6 °F 32.0 °F 93% 29.74 in 1.8 mi West 5.8 mph - 0.00 in Snow Light Snow
7:28 PM 33.8 °F - 32.0 °F 93% 29.73 in 3.0 mi Calm Calm - 0.00 in Snow Light Snow
7:44 PM 33.8 °F 27.7 °F 30.2 °F 87% 29.73 in 10.0 mi Variable 6.9 mph - 0.00 in   Mostly Cloudy
7:53 PM 33.1 °F 28.7 °F 30.9 °F 92% 29.71 in 10.0 mi Variable 4.6 mph 28.8 mph 0.00 in   Partly Cloudy
8:23 PM 33.8 °F 28.6 °F 32.0 °F 93% 29.74 in 2.5 mi SW 5.8 mph - 0.00 in Snow Light Snow
8:40 PM 33.8 °F 27.7 °F 30.2 °F 87% 29.73 in 1.2 mi South 6.9 mph - 0.00 in Snow Light Snow
8:53 PM 32.0 °F 28.7 °F 30.9 °F 96% 29.70 in 2.5 mi South 3.5 mph - 0.00 in Snow Light Snow
9:00 PM 32.0 °F - 30.2 °F 93% 29.72 in 4.0 mi Calm Calm - 0.00 in   Overcast
9:09 PM 32.0 °F - 32.0 °F 100% 29.73 in 2.0 mi Calm Calm - 0.00 in   Overcast
9:16 PM 33.8 °F - 32.0 °F 93% 29.74 in 1.8 mi Calm Calm - 0.00 in   Overcast
9:19 PM 33.8 °F 30.8 °F 30.2 °F 87% 29.74 in 3.0 mi North 3.5 mph - 0.00 in   Overcast
9:26 PM 33.8 °F 28.6 °F 30.2 °F 87% 29.74 in 2.5 mi North 5.8 mph - 0.00 in Snow Light Snow
9:35 PM 33.8 °F - 33.8 °F 100% 29.75 in 1.5 mi Calm Calm - 0.00 in Snow Light Snow
9:39 PM 33.8 °F - 32.0 °F 93% 29.75 in 2.0 mi Calm Calm - 0.00 in Snow Light Snow
9:49 PM 33.8 °F - 32.0 °F 93% 29.75 in 5.0 mi Calm Calm - 0.00 in   Overcast
9:53 PM 33.1 °F - 32.0 °F 96% 29.70 in 6.0 mi Calm Calm - 0.00 in   Overcast
10:03 PM 33.8 °F - 30.2 °F 87% 29.76 in 1.8 mi Calm Calm - 0.00 in Snow Light Snow
10:10 PM 33.8 °F - 32.0 °F 93% 29.75 in 0.8 mi Calm Calm - 0.00 in Snow Light Snow
10:20 PM 33.8 °F - 32.0 °F 93% 29.75 in 1.0 mi Calm Calm - 0.00 in Snow Light Snow
10:28 PM 33.8 °F - 32.0 °F 93% 29.75 in 2.0 mi Calm Calm - 0.00 in Snow Light Snow
10:33 PM 32.0 °F - 30.2 °F 93% 29.75 in 3.0 mi Calm Calm - 0.00 in Snow Light Snow
10:53 PM 32.0 °F 28.7 °F 30.0 °F 92% 29.67 in 6.0 mi NE 3.5 mph - 0.00 in Snow Light Snow
11:06 PM 32.0 °F 27.5 °F 30.2 °F 93% 29.74 in 10.0 mi North 4.6 mph - 0.00 in   Mostly Cloudy
11:46 PM 28.4 °F 19.7 °F 26.6 °F 93% 29.72 in 1.8 mi NE 9.2 mph - 0.00 in   Scattered Clouds
11:53 PM 28.0 °F 20.0 °F 26.1 °F 92% 29.63 in 2.0 mi NE 8.1 mph - 0.00 in   Scattered Clouds
11:59 PM 26.6 °F 20.0 °F 26.6 °F 100% 29.71 in 9.0 mi ENE 5.8 mph - N/A   Mostly Cloudy